Terminal Aerodrome Forecast
Issued by NWS Norman, OK

Home | Current Version | Previous Version | Text Only | Print | Product List | Glossary On
Versions: 1 2 3 4 5 6 7 8 9 10 11 12 13 14 15 16 17 18 19 20 21 22 23
000
FTUS44 KOUN 010520
TAFSPS
TAF
KSPS 010520Z 0106/0206 16011KT P6SM FEW100 SCT250
      TEMPO 0107/0109 -TSRA BKN060CB
     FM011500 19015G25KT P6SM SCT080=

USA.gov is the U.S. government's official web portal to all federal, state and local government web resources and services.